Regional Weather Roundup
Issued by NWS

Home | Current Version | Previous Version | Text Only | Print | Product List | Glossary Off
Versions: 1 2 3 4 5 6 7 8 9 10 11 12 13 14 15 16 17 18 19 20 21 22 23 24 25 26 27 28 29 30 31 32 33 34 35 36 37 38 39 40 41 42 43 44 45 46 47 48 49 50

000
ASUS45 KPSR 022000
RWRAZ

ARIZONA HOURLY REGIONAL WEATHER ROUNDUP
NATIONAL WEATHER SERVICE PHOENIX AZ
100 PM MST WED SEP 02 2015

NOTE: FAIR INDICATES FEW OR NO CLOUDS BELOW 12,000 FEET WITH NO
SIGNIFICANT WEATHER AND/OR OBSTRUCTIONS TO VISIBILITY.

AZZ001>003-036-022100-
NORTHWEST ARIZONA

CITY           SKY/WX    TMP DP  RH WIND       PRES   REMARKS
KINGMAN        PTSUNNY   92  44  19 SW21G26   30.03F
$$

AZZ004>008-015-016-018-022100-
NORTH CENTRAL ARIZONA

CITY           SKY/WX    TMP DP  RH WIND       PRES   REMARKS
GRAND CANYON   MOSUNNY   78  46  32 SW9       30.26F
WILLIAMS       MOSUNNY   77  48  36 S8G20     30.32F
PRESCOTT       PTSUNNY   84  45  25 SW8G18    30.16F
FLAGSTAFF      NOT AVBL
PAYSON         PTSUNNY   81  55  41 VRB7G18   30.21S
PAGE           SUNNY     90  45  21 MISG      30.06F
$$

AZZ009>014-017-022100-
NORTHEAST ARIZONA

CITY           SKY/WX    TMP DP  RH WIND       PRES   REMARKS
WINSLOW        CLOUDY    81  55  40 SE8       30.16F
SAINT JOHNS    PTSUNNY   81  52  36 VRB3      30.21F
SHOW LOW       PTSUNNY   75  50  41 SW7G20    30.26F THUNDER
$$

AZZ023-022100-
GREATER PHOENIX AREA

CITY           SKY/WX    TMP DP  RH WIND       PRES   REMARKS
PHOENIX        PTSUNNY   96  52  22 SW7       29.89F
GLENDALE       PTSUNNY   99  48  18 CALM      29.91F
DEER VALLEY    PTSUNNY   92  54  27 SE8       29.92F
SCOTTSDALE     CLOUDY    91  54  28 VRB3      29.94F
MESA-FALCON    PTSUNNY   95  46  18 S10       29.92F
MESA-GATEWAY   PTSUNNY   93  50  22 MISG      29.94F
CHANDLER       PTSUNNY   97  52  21 VRB5      29.92F
$$

AZZ027-028-022100-
SOUTHWEST MARICOPA COUNTY AND PINAL COUNTY

CITY           SKY/WX    TMP DP  RH WIND       PRES   REMARKS
CASA GRANDE    PTSUNNY   97  52  21 S9        29.92F
GILA BEND      MOSUNNY   99  51  19 VRB2      29.86F
$$

AZZ503-504-507>509-022100-
SOUTHEAST ARIZONA

CITY           SKY/WX    TMP DP  RH WIND       PRES   REMARKS
TUCSON         MOSUNNY   92  58  31 VRB6      30.02F
DAVIS-MONTHAN  PTSUNNY   91  58  32 W8        30.00F
RYAN FIELD     SUNNY     93  61  33 NW6       30.01F
NOGALES        PTSUNNY   86  57  37 SW9       30.11F
SAFFORD        SUNNY     90  60  36 NW8       30.02F
$$

AZZ020-021-025-026-031-022100-
SOUTHWEST ARIZONA

CITY           SKY/WX    TMP DP  RH WIND       PRES   REMARKS
YUMA           PTSUNNY  102  50  17 S14G23    29.82F
$$

CAZ031-033-041-043-047-048-061-022100-
SOUTHERN CALIFORNIA

CITY           SKY/WX    TMP DP  RH WIND       PRES   REMARKS
DOWNTOWN L.A.  MOSUNNY   79  60  52 VRB5      29.94F
L.A. AIRPORT   PTSUNNY   73  60  63 W14       29.97S
SAN DIEGO      PTSUNNY   75  58  55 SW10G16   29.98S
ONTARIO        PTSUNNY   82  52  35 SW9       29.94F
RIVERSIDE      MOSUNNY   81  56  42 VRB7      29.94F
PALM SPRINGS   MOSUNNY   98  44  15 VRB3      29.85F
EL CENTRO NAS  PTSUNNY   98  46  17 VRB3      29.82F
IMPERIAL       SUNNY     99  48  17 MISG      29.80F
BLYTHE         PTSUNNY   97  54  23 S12       29.84F
$$

NVZ020-UTZ003-022100-
SOUTHERN NEVADA-UTAH

CITY           SKY/WX    TMP DP  RH WIND       PRES   REMARKS
LAS VEGAS      NOT AVBL
SALT LAKE CITY MOSUNNY   89  40  17 S21G32    29.95F
$$

NMZ009-TXZ055-022100-
NEW MEXICO-WEST TEXAS

CITY           SKY/WX    TMP DP  RH WIND       PRES   REMARKS
ALBUQUERQUE    MOSUNNY   86  45  23 CALM      30.17F
EL PASO        PTSUNNY   97  42  15 NW6       30.04F
$$


........................KEY........................
SKY/WX - SKY CONDITION/WEATHER
TMP    - TEMPERATURE IN FAHRENHEIT
DP     - DEW POINT IN FAHRENHEIT
RH     - RELATIVE HUMIDITY IN PERCENT
WIND   - DIRECTION AND SPEED IN MILES PER HOUR (MPH)
VRB    - VARIABLE WIND DIRECTION
PRES   - MEAN SEA LEVEL PRESSURE IN INCHES OF MERCURY
         F - FALLING PRESSURE   R - RISING PRESSURE
         S - STEADY PRESSURE
VSB    - VISIBILITY IN MILES
HX     - HEAT INDEX IN FAHRENHEIT
WCI    - WIND CHILL INDEX IN FAHRENHEIT
TC     - TEMPERATURE IN CELSIUS WHICH IS ALSO KNOWN AS
         TEMPERATURE IN CENTIGRADE
AFB    - AIR FORCE BASE
         LUKE AFB IS LUKE AIR FORCE BASE
         DAVIS-MONTHAN IS DAVIS-MONTHAN AIR FORCE BASE
NAS    - NAVAL AIR STATION
         EL CENTRO NAS IS EL CENTRO NAVAL AIR STATION
N/A    - NOT AVAILABLE



USA.gov is the U.S. government's official web portal to all federal, state and local government web resources and services.